Flag for India Weather past 2 weeks in Ghazipur, Uttar Pradesh, India

Now
79 °F

Haze.


Feels Like: 81 °F
Forecast: 79 / 97 °F
Wind: 5 mph from East

Location: Varanasi / Babatpur

Current Time: Apr 28, 2015 at 4:47:24 AM

Latest Report: Apr 28, 2015 at 4:00 AM


Visibility: 2 mi

Pressure: 29.71 "Hg

Humidity: 74%

Dew point: 70 °F

Location of GhazipurLocation

Historic Weather in Ghazipur — Graph

°F

Ghazipur temperature yesterday

Maximum temperature yesterday: 99 °F (at 3:00 PM)
Minimum temperature yesterday: 75 °F (at 5:00 AM)
Average temperature yesterday: 88 °F

Past Weeks' High & Low Weather Summary

 TemperatureHumidityPressure
High104 °F (Apr 19, 1:00 PM)100% (Apr 15, 12:00 AM)30.04 "Hg (Apr 15, 12:00 AM)
Low70 °F (Apr 15, 12:00 AM)18% (Apr 23, 12:00 PM)29.53 "Hg (Apr 18, 4:00 PM)
Average86 °F55%29.77 "Hg
* Reported Apr 13 4:00 AM — Midnight between Apr 27 and Apr 28, Ghazipur, Weather by CustomWeather, © 2015

Note: Actual official high and low records may vary slightly from our data, if they occured in-between our weather recording intervals... More about our weather records

Advertising

Ghazipur weather history for previous 24 hours

 ConditionsComfort  
Time TempWeatherWind HumidityBarometerVisibility
12:00 AM
Tue, Apr 28
82 °FHaze.3 mph66%29.77 "Hg2 mi
11:00 PM
Mon, Apr 27
84 °FHaze.5 mph62%29.77 "Hg2 mi
9:00 PM86 °FHaze.7 mph52%29.77 "Hg2 mi
8:00 PM90 °FHaze.8 mph46%29.77 "Hg2 mi
7:00 PM91 °FHaze.8 mph41%29.74 "Hg2 mi
6:00 PM93 °FHaze.7 mph39%29.71 "Hg3 mi
5:00 PM97 °FHaze.3 mph32%29.71 "Hg3 mi
4:00 PM97 °FHaze.6 mph32%29.71 "Hg3 mi
3:00 PM99 °FHaze.7 mph31%29.74 "Hg3 mi
2:00 PM97 °FHaze.7 mph32%29.77 "Hg3 mi
1:00 PM95 °FHaze.3 mph36%29.80 "Hg3 mi
12:00 PM91 °FHaze.6 mph46%29.83 "Hg3 mi
11:00 AM91 °FScattered clouds.6 mph44%29.86 "Hg2 mi
10:00 AM88 °FScattered clouds.7 mph55%29.86 "Hg2 mi
9:00 AM86 °FScattered clouds.9 mph59%29.86 "Hg2 mi
7:00 AM79 °FHaze.8 mph70%29.83 "Hg1 mi
6:00 AM75 °FHaze.7 mph74%29.80 "Hg2 mi
5:00 AM75 °FHaze.7 mph74%29.77 "Hg2 mi
4:00 AM77 °FHaze.6 mph74%29.74 "Hg2 mi
Weather by CustomWeather, © 2015

See weather overviewHow to use our weather pages